Location: Berkeley
(37.8716°N, 122.2727°W)
Time: 15:46:45
(UTC-07:00)

Envisat - Pass Details

Date: 13 May 2026
Orbit: 761 x 763 km, 98.4° (Epoch: 7 June)

Event Time Altitude Azimuth Distance (km) Brightness Sun altitude
Rises 03:12:33 0° 20° (NNE) 3,229 7.5 -26.3°
Reaches altitude 10° 03:14:59 10° 28° (NNE) 2,299 6.5 -26.0°
Maximum altitude 03:19:46 42° 99° (E) 1,077 3.9 -25.4°
Enters shadow 03:21:08 35° 137° (SE) 1,223 3.9 -25.3°
